METEOR 2-12 DEB

Satellite information

Favourite Embed

Satellite Type and Status

DEBRISIN ORBIT

Key statistics

Satellite METEOR 2-12 DEB at a glance.

Uptime

14921

Days in orbit

Revolutions

≈ 14.0

Per day

Orbit

LEO

Low Earth Orbit

Inclination

82.5

Latest

Satellite identification and parameters

Extended collection of information and parameters for METEOR 2-12 DEB.

Object identification

Identified? True

Debris? True

Object name: METEOR 2-12 DEB

International designator: 1985-013D

Object number (NORAD): 45518

Object ID (CCSDS): 45518

Country: COMMONWEALTH OF INDEPENDENT STATES (CIS)

Current information (Y/N): Y

RCS size: SMALL

Orbital parameters

Period: 102.562 minutes

Inclination: 82.527 deg

SMA: 7258.024 km

Apoapsis: 897.205 km

Periapsis: 862.572 km

RAAN: 69.994 deg

Eccentricy: 0.00238584

Argument of periapsis: 267.5667 deg

Mean anomaly: 92.2772 deg

Mean motion: 14.04026063 rev/day

Mean motion (dot): 0.00005915 rev/day2

B* drag term: 0.0037219303 1/REarth

Two-line elements (TLE)

Creation date: Dec. 4, 2025, 10:52 a.m.

Reference frame: TEME

Reference center: EARTH

Epoch: Dec. 3, 2025, 11:54 p.m. UTC

TLE line 0: 0 METEOR 2-12 DEB

TLE line 1: 1 45518U 85013D 25337.99647973 .00005915 00000-0 37219-2 0 9998

TLE line 2: 2 45518 82.5270 69.9940 0023858 267.5667 92.2772 14.04026063 93503

Live tracking on map

Real-time ground track for satellite METEOR 2-12 DEB.

In-orbit conjunctions

A list of the most updated potential collisions computed for object METEOR 2-12 DEB.

Target Orbit TCA Probability of collision Miss distance Type
SL-3 R/B LEO 2025-03-31 21:00:39 0.0002201911 422.0 (m) ROCKET BODY

Associated space launch

Film-return reconnaissance satellite

METEOR 2-12 DEB was lifted into orbit during the mission ‘Soyuz U | Zenit-8 11’, on board a Soyuz U space rocket.

The launch took place on Feb. 6, 1985, 11 a.m. from 16/2.

For more information about the launch, click the button.

Launch to space Soyuz U | Zenit-8 11
Soyuz U | Zenit-8 11

Agency: N/A

Status: Launch Successful

Launch date: Feb. 6, 1985, 11 a.m. UTC

Rocket: Soyuz U

Launch pad: 16/2

Location: Plesetsk Cosmodrome, Russian Federation

...

Latest news about this satellite

There are no fresh news available about this satellite. Check back as we update our databases every day.


Newsletter sign-up

Weekly statistics, charts and insights to help you stay on top of the space industry.